AirNav   ProFlight Series 2 Aviation Headset
 
 1563 users online  

8D4 Paul C Miller-Sparta Airport
Sparta, Michigan, USA

GOING TO SPARTA?


FAA INFORMATION EFFECTIVE 16 JULY 2020

Location

FAA Identifier: 8D4
Lat/Long: 43-07-38.7752N 085-40-44.8665W
43-07.646253N 085-40.747775W
43.1274376,-85.6791296
(estimated)
Elevation: 774.8 ft. / 236.2 m (surveyed)
Variation: 04W (1980)
From city: 3 miles SE of SPARTA, MI
Time zone: UTC -4 (UTC -5 during Standard Time)
Zip code: 49345

Airport Operations

Airport use: Open to the public
Activation date: 12/1944
Control tower: no
ARTCC: CHICAGO CENTER
FSS: LANSING FLIGHT SERVICE STATION
NOTAMs facility: LAN (NOTAM-D service available)
Attendance: MON-FRI 0900-1300, ALL SAT-SUN IREG
UNATNDD MAJOR HOLS.
Wind indicator: lighted
Segmented circle: yes
Lights: ACTVT REIL RWY 07 & 25; MIRL RWY 07/25, - CTAF. PAPI RWY 07 & 25 OPS CONSLY.
Beacon: white-green (lighted land airport)
Operates sunset to sunrise.

Airport Communications

CTAF/UNICOM: 122.8
GREAT LAKES APPROACH: 124.6
GREAT LAKES DEPARTURE: 124.6
WX ASOS at GRR (16 nm SE): 118.725 (616-575-1953)
  • APCH/DEP SVC PRVDD BY CHICAGO ARTCC (ZAU) ON FREQ 128.4 (GRAND RAPIDS RCAG) WHEN GREAT LAKES APCH CTL CLSD.

Nearby radio navigation aids

VOR radial/distance  VOR name  Freq  Var
MKGr100/16.0MUSKEGON VORTAC115.2001W
VIOr343/22.0VICTORY VOR/DME115.9504W
HICr178/26.9WHITE CLOUD VOR/DME117.6001W

Airport Services

Fuel available: 100LL MOGAS
SELF SVC FUEL AVBL 24/7 WITH CREDIT CARD.
Parking: tiedowns
Airframe service: NONE
REPAIRS AVBL ON CALL 616-706-4421.
Powerplant service: NONE
Bottled oxygen: NONE
Bulk oxygen: NONE

Runway Information

Runway 7/25

Dimensions: 4032 x 75 ft. / 1229 x 23 m
Surface: asphalt, in good condition
Weight bearing capacity: 
Single wheel: 24.0
Runway edge lights: medium intensity
RUNWAY 7  RUNWAY 25
Latitude: 43-07.492800N43-07.799705N
Longitude: 085-41.149523W085-40.346025W
Elevation: 774.6 ft.744.9 ft.
Traffic pattern: leftleft
Runway heading: 067 magnetic, 063 true247 magnetic, 243 true
Markings: nonprecision, in fair conditionnonprecision, in fair condition
Visual slope indicator: 2-light PAPI on left (3.50 degrees glide path)2-light PAPI on right (3.50 degrees glide path)
Runway end identifier lights: yesyes
Touchdown point: yes, no lightsyes, no lights

Airport Ownership and Management from official FAA records

Ownership: Publicly-owned
Owner: CITY OF SPARTA
156 E DIVISION ST
SPARTA, MI 49345-1330
Phone 616-887-8251
Manager: MARTIN COAKER
156 E DIVISION ST
SPARTA, MI 49345-1330
Phone 616-443-1101
CELL.

Airport Operational Statistics

Aircraft based on the field: 88
Single engine airplanes: 80
Multi engine airplanes: 4
Jet airplanes: 2
Helicopters: 2
    
Aircraft operations: avg 41/day *
60% local general aviation
40% transient general aviation
* for 12-month period ending 31 December 2017

Additional Remarks

BIRDS & DEER ON & INVOF ARPT.
POWERED PARACHUTE OPNS NORTH SIDE OF RY.
ADMIN BLDG. ACES 5,3,2,1.
FOR CD CTC GREAT LAKES APCH AT 269-459-3345. WHEN APCH CLSD, FOR CD CTC CHICAGO ARTCC AT 630-906-8921.

Instrument Procedures

NOTE: All procedures below are presented as PDF files. If you need a reader for these files, you should download the free Adobe Reader.

NOT FOR NAVIGATION. Please procure official charts for flight.
FAA instrument procedures published for use from 16 July 2020 at 0901Z to 13 August 2020 at 0900Z.

 
IAPs - Instrument Approach Procedures
RNAV (GPS) RWY 07 **CHANGED**   download (218KB)
RNAV (GPS) RWY 25 **CHANGED**   download (219KB)
NOTE: Special Take-Off Minimums/Departure Procedures apply   download (181KB)

Other nearby airports with instrument procedures:

KGRR - Gerald R Ford International Airport (16 nm SE)
6D6 - Greenville Municipal Airport (19 nm E)
KFFX - Fremont Municipal Airport (23 nm NW)
3GM - Grand Haven Memorial Airpark (23 nm W)
KMKG - Muskegon County Airport (24 nm W)
 
Loc | Ops | Rwys | IFR | FBO | Links
Com | Nav | Svcs | Stats | Notes
Area around 8D4 (Paul C Miller-Sparta Airport)
 
Road maps at: MapQuest Bing Google
 
Aerial photo
WARNING: Photo may not be current or correct
Aerial photo of 8D4 (Paul C Miller-Sparta Airport)
Photo by Tal Reichert
Photo taken 29-Jul-2012
looking northeast.

Do you have a better or more recent aerial photo of Paul C Miller-Sparta Airport that you would like to share? If so, please send us your photo.

 
Sectional chart

 
Airport distance calculator
Flying to Paul C Miller-Sparta Airport? Find the distance to fly.

From to 8D4

Sunrise and sunset
Times for 11-Aug-2020
 Local
(UTC-4)
 Zulu
(UTC)
Morning civil twilight06:1510:15
Sunrise06:4610:46
Sunset20:4900:49
Evening civil twilight21:2001:20

Current date and time
Zulu (UTC)  11-Aug-2020 14:48:35
Local (UTC-4)  11-Aug-2020 10:48:35
 
METAR
KGRR 
16nm SE 
111353Z 01007KT 10SM FEW030 FEW250 23/15 A2997 RMK AO2 SLP143 T02330150
KFFX 
23nm NW 
111435Z AUTO 33005KT 10SM CLR 23/16 A2997 RMK AO2 T02260163
KMKG 
24nm W 
111355Z 32005KT 10SM FEW050 FEW250 24/16 A2997 RMK AO2 SLP145 T02390156
KBIV 
29nm SW 
111353Z AUTO 02006KT 10SM CLR 24/13 A2997 RMK AO2 SLP145 T02390133
KY70 
29nm SE 
111430Z AUTO 35005KT 10SM CLR 23/11 A2996 RMK AO2
TAF
KGRR 
16nm SE 
111120Z 1112/1212 32006KT P6SM SCT008 SCT250 FM111300 32006KT P6SM SCT250
NOTAMs
Click for the latest NOTAMs
NOTAMs are issued by the DoD/FAA and will open in a separate window not controlled by AirNav.

 

 
 

FBO, Fuel Providers, and Aircraft Ground Support

  
 Business Name 
 
 Contact 
 
 Services / Description 
 
Fuel Prices
 
Comments
  
Village of Sparta (FBO) 616-887-5744
no information available

If you are affiliated with Village of Sparta (FBO) and would like to show here your services, contact info, web link, logo, and more, click here
100LL Mogas
SS $3.97 $3.49 
 Updated 23-Jul-2020
 
   1 read write
SS=Self service
Update Fuel Prices
 

Would you like to see your business listed on this page?

 If your business provides an interesting product or service to pilots, flight crews, aircraft, or users of the Paul C Miller-Sparta Airport, you should consider listing it here.  To start the listing process, click on the button below
 
Add a business
 

Other Pages about Paul C Miller-Sparta Airport

spartami.org/sparta-airport.php
Page from the Michigan Airport Directory (PDF)
 
Update a link
 
Copyright © AirNav, LLC. All rights reserved. Privacy Policy  Contact